[[{"header":{"parameterUnit":"m.s-1","parameterCategory":1,"la1":30.2991,"la2":30.254,"lo1":-89.0895,"lo2":-89.0444,"dy":0.0017,"dx":0.0017,"nx":28,"ny":28,"refTime":"2025-04-19T21:00:00:Z","depth":0,"parameterNumber":2,"parameterNumberName":"U-component_of_WINDS"},"data":[0,0,0,0,0,0,0,0,0,0,0,0,0,0,0,0,0,0,0,0,0,0,0,0,0,0,0,0,0,0,0,0,0,0,0,0,0,0,0,0,0,0,0,0,0,0,0,0,0,0,0,0,0,0,0,0,0,0,-4.6609,-4.661,0,-4.6669,-4.667,-4.667,-4.6622,-4.662,-4.6618,-4.6616,-4.6675,-4.6678,-4.6682,0,0,0,0,0,0,0,0,0,0,0,0,0,-4.6454,-4.6457,-4.6609,-4.661,-4.6611,-4.6669,-4.667,-4.667,-4.6622,-4.662,-4.6617,-4.6615,-4.6674,-4.6678,-4.6682,0,0,0,0,0,0,0,0,0,0,0,0,0,-4.6518,-4.6458,-4.6609,-4.6594,-4.6593,-4.6669,-4.667,-4.6671,-4.6623,-4.662,-4.6617,-4.6614,-4.6672,-4.6677,-4.6682,-4.6776,0,0,-4.6698,-4.67,0,0,0,0,0,0,0,0,-4.6515,-4.6524,-4.6595,-4.6595,-4.6594,-4.6635,-4.6636,-4.6706,-4.6624,-4.6612,-4.6616,-4.6612,-4.6664,-4.6669,-4.6687,-4.6778,-4.6781,-4.6699,-4.6702,-4.6704,-4.6706,0,0,0,0,0,0,0,-4.651,-4.6521,-4.6633,-4.6597,-4.6596,-4.6584,-4.659,-4.6649,-4.6654,-4.6612,-4.6609,-4.6617,-4.6663,-4.6682,-4.6688,-4.6782,-4.6699,-4.6703,-4.6706,-4.6708,-4.6954,-4.6958,0,0,0,0,0,0,-4.6508,-4.6518,-4.6631,-4.6635,-4.6546,-4.6589,-4.6596,-4.6625,-4.6653,-4.6655,-4.6619,-4.6614,-4.6675,-4.6682,-4.669,-4.6802,-4.6704,-4.6709,-4.6712,-4.6951,-4.6955,-4.6959,0,0,0,0,0,0,-4.6505,-4.6518,-4.6628,-4.6575,-4.6589,-4.6595,-4.6628,-4.6628,-4.6647,-4.6659,-4.6659,-4.6638,-4.6673,-4.6683,-4.6755,-4.6803,-4.6711,-4.6716,-4.6947,-4.6952,-4.6957,-4.7025,0,0,0,0,0,0,-4.65,-4.6517,-4.6552,-4.6577,-4.6592,-4.6693,-4.6631,-4.6631,-4.6656,-4.665,-4.6676,-4.6678,-4.6671,-4.6748,-4.6761,-4.6809,-4.672,-4.6943,-4.6949,-4.6955,-4.7019,-4.7032,-4.7044,0,0,0,0,0,-4.6495,-4.6568,-4.6554,-4.6568,-4.6636,-4.6695,-4.6704,-4.6695,-4.6661,-4.6696,-4.6704,-4.6677,-4.6797,-4.6756,-4.6769,-4.682,-4.6939,-4.6947,-4.6955,-4.7013,-4.703,-4.7043,0,0,0,0,0,0,-4.6548,-4.6571,-4.6556,-4.6639,-4.6666,-4.6687,-4.6731,-4.6713,-4.6749,-4.6742,-4.673,-4.6736,-4.6812,-4.6824,-4.6778,-4.6913,-4.6862,-4.6873,-4.6902,-4.6918,-4.693,-4.6925,-4.6724,0,0,0,0,0,-4.657,-4.6616,-4.6634,-4.6706,-4.6721,-4.6724,-4.675,-4.6742,-4.6768,-4.6779,-4.6792,-4.6818,-4.6862,-4.6891,-4.6931,-4.7021,-4.7027,-4.7063,-4.7076,-4.7086,-4.7094,-4.7144,-4.7161,-4.6984,-4.6984,-4.6984,0,0,-4.6614,-4.6633,-4.6662,-4.6717,-4.6737,-4.6786,-4.6734,-4.6787,-4.6823,-4.6787,-4.6856,-4.6867,-4.6896,-4.6978,-4.7015,-4.699,-4.7145,-4.7096,-4.7104,-4.7107,-4.7154,-4.7171,-4.7185,-4.6989,-4.6988,-4.6988,0,0,-4.672,-4.6739,-4.6802,-4.6823,-4.6854,-4.6857,-4.6872,-4.6898,-4.6904,-4.6974,-4.6948,-4.6991,-4.7066,-4.7089,-4.711,-4.7229,-4.7206,-4.7243,-4.7307,-4.7355,-4.7369,-4.7382,-4.7424,-4.7439,-4.7252,-4.7252,-4.7252,0,-4.6771,-4.6844,-4.6836,-4.6892,-4.6917,-4.6889,-4.6953,-4.6974,-4.7017,-4.7035,-4.7007,-4.7103,-4.712,-4.7208,-4.7237,-4.7255,-4.7273,-4.7238,-4.7368,-4.738,-4.7392,-4.7432,-4.7448,-4.7257,-4.7256,-4.7256,-4.7255,0,-4.6905,-4.6956,-4.7003,-4.7047,-4.7078,-4.7138,-4.7139,-4.7172,-4.7162,-4.7168,-4.7241,-4.7262,-4.7307,-4.7328,-4.7318,-4.7415,-4.7398,-4.737,-4.7318,-4.7413,-4.7451,-4.7466,-4.7263,-4.7261,-4.726,-4.7259,0,0,-4.7042,-4.7084,-4.7101,-4.7121,-4.7156,-4.7195,-4.7255,-4.73,-4.7329,-4.736,-4.741,-4.7476,-4.7451,-4.7475,-4.7468,-4.7511,-4.7605,-4.7478,-4.7478,-4.75,-4.7714,-4.7734,-4.7752,-4.7591,-4.7594,-4.7597,-4.7711,0,-4.7149,-4.7253,-4.7249,-4.7346,-4.7394,-4.737,-4.7422,-4.7449,-4.7457,-4.7499,-4.7508,-4.7555,-4.7518,-4.7533,-4.7575,-4.7585,-4.7648,-4.7577,-4.7637,-4.7639,-4.7629,-4.7772,-4.7793,-4.79,-4.7726,-4.7729,-4.773,0,-4.7287,-4.7325,-4.7427,-4.7457,-4.7477,-4.7523,-4.7566,-4.7607,-4.7638,-4.7641,-4.767,-4.7658,-4.7719,-4.7668,-4.7752,-4.7704,-4.773,-4.7739,-4.7743,-4.7746,-4.7689,-4.7778,-4.7934,-4.7949,-4.7754,-4.7752,-4.775,0,-4.7376,-4.7453,-4.7525,-4.7543,-4.7579,-4.7613,-4.763,-4.7658,-4.7686,-4.7724,-4.7743,-4.7787,-4.7811,-4.7846,-4.7846,-4.7809,-4.7932,-4.7881,-4.7936,-4.7936,-4.796,-4.7959,-4.8121,-4.7979,-4.7979,-4.7979,-4.7978,0,-4.7495,-4.7558,-4.7566,-4.7609,-4.768,-4.7677,-4.7747,-4.776,-4.7786,-4.7832,-4.7815,-4.7859,-4.7857,-4.7901,-4.7902,-4.7972,-4.7983,-4.7988,-4.7987,-4.7988,-4.7988,-4.8003,-4.7995,-4.7983,-4.7982,-4.7981,-4.7981,0,-4.7605,-4.7613,-4.7689,-4.7719,-4.7728,-4.7779,-4.7804,-4.7846,-4.7854,-4.7913,-4.7927,-4.7939,-4.7992,-4.7996,-4.8056,-4.8056,-4.8141,-4.8133,-4.8131,-4.8129,-4.8184,-4.8178,-4.836,-4.8384,-4.8228,-4.8229,-4.8231,0,-4.768,-4.7728,-4.7764,-4.7795,-4.7814,-4.7863,-4.7892,-4.7892,-4.7924,-4.7965,-4.8002,-4.8053,-4.8094,-4.8178,-4.8193,-4.8239,-4.8231,-4.8292,-4.8238,-4.8239,-4.8231,-4.8228,-4.8233,-4.8301,-4.8303,-4.8305,-4.8306,0,-4.7812,-4.7814,-4.7858,-4.7904,-4.7941,-4.7977,-4.8011,-4.8037,-4.8041,-4.8078,-4.8132,-4.8163,-4.8226,-4.8277,-4.8323,-4.8341,-4.8324,-4.8323,-4.8338,-4.834,-4.8336,-4.8339,-4.8158,-4.8318,-4.8317,-4.8316,-4.8315,-4.8315,-4.7906,-4.7948,-4.7981,-4.8031,-4.8057,-4.809,-4.8132,-4.8147,-4.8192,-4.8243,-4.8241,-4.8301,-4.8333,-4.8394,-4.8415,-4.8462,-4.8442,-4.8463,-4.8469,-4.8474,-4.8479,-4.8331,-4.8471,-4.847,-4.847,-4.847,-4.8469,0,-4.8036,-4.8057,-4.8103,-4.8152,-4.8192,-4.8176,-4.8213,-4.8248,-4.8301,-4.8333,-4.8374,-4.8437,-4.8488,-4.8508,-4.8557,-4.8591,-4.8585,-4.8604,-4.86,-4.8605,-4.8495,-4.8477,-4.8608,-4.8608,-4.8608,-4.8608,-4.8608,-4.8608,-4.8108,-4.818,-4.8187,-4.8272,-4.8292,-4.8351,-4.8374,-4.8405,-4.8431,-4.8502,-4.8544,-4.8558,-4.8586,-4.8637,-4.8683,-4.8688,-4.8706,-4.8729,-4.873,-4.8626,-4.8612,-4.8599,-4.8582,-4.8733,-4.8733,-4.8836,-4.8837,-4.8838]},{"header":{"parameterUnit":"m.s-1","parameterCategory":1,"la1":30.2991,"la2":30.254,"lo1":-89.0895,"lo2":-89.0444,"dy":0.0017,"dx":0.0017,"nx":28,"ny":28,"refTime":"2025-04-19T21:00:00:Z","depth":0,"parameterNumber":3,"parameterNumberName":"V-component_of_WINDS"},"data":[0,0,0,0,0,0,0,0,0,0,0,0,0,0,0,0,0,0,0,0,0,0,0,0,0,0,0,0,0,0,0,0,0,0,0,0,0,0,0,0,0,0,0,0,0,0,0,0,0,0,0,0,0,0,0,0,0,0,2.256,2.256,0,2.2572,2.2573,2.2573,2.26,2.2601,2.2601,2.2602,2.2611,2.2611,2.261,0,0,0,0,0,0,0,0,0,0,0,0,0,2.256,2.256,2.256,2.256,2.2561,2.2572,2.2573,2.2573,2.26,2.2601,2.2601,2.2602,2.2611,2.2611,2.261,0,0,0,0,0,0,0,0,0,0,0,0,0,2.2565,2.256,2.256,2.2576,2.2577,2.2572,2.2573,2.2573,2.26,2.2601,2.2602,2.2602,2.2611,2.2611,2.261,2.2591,0,0,2.2609,2.2609,0,0,0,0,0,0,0,0,2.2564,2.2565,2.2573,2.2575,2.2576,2.2586,2.2576,2.2579,2.26,2.2591,2.2602,2.2603,2.2602,2.2602,2.2602,2.2591,2.2591,2.2609,2.2609,2.2609,2.2608,0,0,0,0,0,0,0,2.2564,2.2564,2.2565,2.2573,2.2575,2.2582,2.2583,2.2577,2.2591,2.2592,2.2594,2.2595,2.2603,2.2603,2.2603,2.2592,2.2609,2.2609,2.2608,2.2608,2.2567,2.2566,0,0,0,0,0,0,2.2562,2.2564,2.2565,2.2565,2.2573,2.2581,2.2583,2.2582,2.2592,2.2594,2.2594,2.2596,2.2603,2.2603,2.2603,2.2582,2.2609,2.2608,2.2608,2.2568,2.2567,2.2566,0,0,0,0,0,0,2.2562,2.2562,2.2564,2.2565,2.2566,2.258,2.2579,2.2582,2.2582,2.2594,2.2596,2.2592,2.2604,2.2604,2.2594,2.2583,2.2608,2.2608,2.2569,2.2567,2.2566,2.2539,0,0,0,0,0,0,2.2562,2.2561,2.2554,2.2565,2.2566,2.2555,2.2578,2.2581,2.2581,2.2584,2.2592,2.2594,2.2604,2.2595,2.2594,2.2583,2.2607,2.257,2.2568,2.2567,2.2541,2.2537,2.2533,0,0,0,0,0,2.2561,2.2545,2.2553,2.2553,2.2557,2.2554,2.2555,2.2568,2.258,2.2573,2.2581,2.2594,2.2584,2.2594,2.2593,2.2581,2.2571,2.2569,2.2567,2.2542,2.2537,2.2533,0,0,0,0,0,0,2.253,2.2546,2.2556,2.2543,2.2547,2.2559,2.255,2.2562,2.2563,2.2565,2.2581,2.2583,2.2571,2.2575,2.2585,2.2564,2.258,2.2577,2.2561,2.2557,2.2553,2.2552,2.2607,0,0,0,0,0,2.2522,2.2519,2.2533,2.252,2.2522,2.2536,2.2535,2.2545,2.255,2.2552,2.2559,2.2563,2.2561,2.2559,2.2558,2.2542,2.2544,2.2534,2.253,2.2527,2.2525,2.2518,2.2514,2.256,2.256,2.256,0,0,2.2504,2.2513,2.251,2.2514,2.2518,2.2515,2.2537,2.2532,2.2529,2.2551,2.2543,2.2548,2.2553,2.2541,2.2536,2.2544,2.2513,2.2524,2.2522,2.2521,2.2516,2.2511,2.2508,2.2558,2.2559,2.2559,0,0,2.2471,2.2477,2.2467,2.2472,2.248,2.249,2.2488,2.2498,2.2503,2.2496,2.2513,2.251,2.2506,2.251,2.2511,2.2482,2.2494,2.2481,2.2461,2.2455,2.2451,2.2448,2.2439,2.2435,2.2479,2.2479,2.2479,0,2.2448,2.2444,2.246,2.2455,2.2457,2.2478,2.2469,2.2472,2.2479,2.2479,2.2489,2.2486,2.2491,2.2481,2.2474,2.2474,2.2472,2.248,2.2451,2.2448,2.2445,2.2436,2.2432,2.2477,2.2477,2.2478,2.2478,0,2.2416,2.2413,2.2405,2.2412,2.2413,2.2405,2.2421,2.242,2.2431,2.2439,2.2433,2.244,2.2441,2.244,2.2449,2.2431,2.2436,2.2448,2.2464,2.2439,2.2431,2.2428,2.2475,2.2476,2.2476,2.2476,0,0,2.2362,2.2381,2.2377,2.2382,2.2393,2.2391,2.2385,2.2388,2.2387,2.2391,2.2387,2.2385,2.2397,2.2398,2.2409,2.2403,2.2381,2.2416,2.2416,2.241,2.2363,2.2355,2.235,2.239,2.2389,2.2389,2.2363,0,2.2331,2.2323,2.2339,2.2327,2.2325,2.2346,2.2341,2.2348,2.2356,2.2356,2.2365,2.2364,2.2379,2.238,2.2376,2.2385,2.2372,2.2387,2.2386,2.2386,2.2384,2.2346,2.2336,2.2312,2.236,2.2359,2.2359,0,2.2294,2.2299,2.2287,2.2301,2.2301,2.2296,2.2301,2.2301,2.2309,2.2316,2.2319,2.2332,2.2328,2.2344,2.2338,2.2348,2.2349,2.2353,2.2353,2.2353,2.2371,2.2346,2.2304,2.2301,2.2354,2.2355,2.2355,0,2.2257,2.226,2.2254,2.2257,2.2273,2.2269,2.2276,2.2285,2.2286,2.2291,2.2292,2.2295,2.2297,2.2299,2.2313,2.2324,2.2307,2.2323,2.2312,2.2312,2.2307,2.2307,2.2266,2.2307,2.2307,2.2307,2.2307,0,2.2221,2.2213,2.2238,2.2234,2.2226,2.2245,2.2236,2.2245,2.2253,2.2251,2.227,2.2267,2.2286,2.2286,2.2297,2.2292,2.2292,2.2297,2.23,2.2296,2.2295,2.2296,2.2299,2.2306,2.2306,2.2307,2.2307,0,2.2178,2.2194,2.2189,2.2205,2.2209,2.2203,2.2217,2.2214,2.2225,2.2223,2.2223,2.224,2.2241,2.2256,2.226,2.2267,2.2258,2.2263,2.2255,2.2257,2.2245,2.2247,2.2203,2.2199,2.2243,2.2242,2.2242,0,2.2154,2.2149,2.2166,2.2167,2.2173,2.2174,2.2176,2.2194,2.2196,2.2206,2.2203,2.2206,2.2209,2.221,2.2222,2.2226,2.2233,2.2217,2.2233,2.2229,2.2233,2.2234,2.2234,2.2214,2.2213,2.2213,2.2212,0,2.2111,2.212,2.2123,2.213,2.2132,2.2138,2.2145,2.2144,2.2165,2.2166,2.2168,2.2171,2.2176,2.2179,2.2186,2.2192,2.2206,2.2208,2.2205,2.2201,2.2196,2.2199,2.2246,2.2208,2.2209,2.2209,2.2209,2.2209,2.2078,2.2075,2.2087,2.209,2.2098,2.2104,2.2103,2.2115,2.2117,2.2124,2.2135,2.2136,2.2146,2.2156,2.2161,2.2163,2.217,2.2167,2.2166,2.2165,2.2163,2.2196,2.2164,2.2164,2.2164,2.2164,2.2164,0,2.2036,2.2046,2.2049,2.2059,2.2062,2.2076,2.2084,2.2086,2.2087,2.2096,2.21,2.2103,2.2107,2.212,2.2125,2.2124,2.213,2.2125,2.2125,2.2126,2.2155,2.2157,2.2119,2.2119,2.2119,2.2119,2.2119,2.2119,2.2015,2.2012,2.2022,2.2023,2.2032,2.2034,2.2038,2.2045,2.2052,2.2056,2.2059,2.2069,2.2079,2.2086,2.209,2.2094,2.2095,2.2088,2.2093,2.212,2.2124,2.2128,2.213,2.2088,2.2088,2.2065,2.2065,2.2065]}]]